Regional Weather Roundup
Issued by NWS

Home | Current Version | Previous Version | Text Only | Print | Product List | Glossary On
Versions: 1 2 3 4 5 6 7 8 9 10 11 12 13 14 15 16 17 18 19 20 21 22 23 24 25 26 27 28 29 30 31 32 33 34 35 36 37 38 39 40 41 42 43 44 45 46 47 48 49 50
000
ASCA42 TJSJ 101310
RWRPR
PUERTO RICO/U.S. VIRGIN ISLANDS HOURLY WEATHER ROUNDUP
NATIONAL WEATHER SERVICE SAN JUAN PR
900 AM AST WED FEB 10 2016

PRZ001-004-101400-
PUERTO RICO

CITY           SKY/WX    TMP DP  RH WIND       PRES   REMARKS
SAN JUAN LMM   MOSUNNY   79  72  78 E7        30.12R
AGUADILLA      SUNNY     79  68  69 SE3       30.13R
CEIBA          SUNNY     81  72  74 SE14      30.15R
$$

PRZ006-007-101400-
U.S. VIRGIN ISLANDS

CITY           SKY/WX    TMP DP  RH WIND       PRES   REMARKS
CHARLOTTE AMA  MOSUNNY   81  72  74 SE13      30.13R
CHRISTIANSTED  MOSUNNY   82  70  65 E15       30.13R
$$

HOURLY WEATHER ROUNDUP FOR THE NEWS MEDIA

CITY           SKY/WX    TMP DP  RH WIND       PRES   REMARKS
ORLANDO        CLEAR     42  25  50 CALM      30.19R
NEW YORK       CLOUDY    35  30  82 W12       29.62S WCI  27
NEWARK         LGT SNOW  32  30  92 W9        29.62R FOG     WCI  24
CHICAGO        PTCLDY     9   0  67 NW9       29.98F WCI  -4
HARTFORD       LGT SNOW  25  24  96 CALM      29.62S FOG
BOSTON         FLURRIES  27  21  78 S8        29.63R WCI  19
DALLAS         CLEAR     38  28  67 CALM      30.34R
PHILADELPHIA   LGT SNOW  32  26  78 W14       29.71  WCI  22
LOS ANGELES    PTCLDY    65  28  24 NE5       30.11S
WASHINGTON DC  MOCLDY    30  14  51 NW17G24   29.79R WCI  18


USA.gov is the U.S. government's official web portal to all federal, state and local government web resources and services.